Location: Eimen
(51.8766°N, 9.7806°E)
Time: 11:22:25
(UTC+00:00)

SL-8 DEB - Visible Passes

Search period start: 06 October 2024 00:00
Search period end: 16 October 2024 00:00
Orbit: 756 x 788 km, 74.0° (Epoch: 28 September)

Date Brightness Start Highest point End Pass type
(mag) Time Alt. Az. Time Alt. Az. Time Alt. Az.
06 Oct ? 02:44:20 12° SSE 02:48:32 32° ESE 02:53:10 10° NE visible
06 Oct ? 04:25:26 10° SW 04:30:30 48° WNW 04:35:40 10° NNE visible
07 Oct ? 02:10:02 14° SE 02:12:55 21° E 02:16:48 10° NE visible
07 Oct ? 03:50:26 17° SW 03:54:31 71° WNW 03:59:51 10° NNE visible
08 Oct ? 01:35:35 11° ESE 01:37:24 13° E 01:39:53 10° ENE visible
08 Oct ? 03:15:59 30° SSW 03:18:38 78° ESE 03:23:58 10° NNE visible
08 Oct ? 04:57:12 10° W 05:01:25 24° NW 05:05:41 10° N visible
09 Oct ? 02:41:25 40° SSE 02:42:50 51° ESE 02:47:58 10° NNE visible
09 Oct ? 04:21:48 16° WSW 04:25:14 32° NW 04:30:01 10° NNE visible
10 Oct ? 02:06:45 33° ESE 02:07:07 34° ESE 02:11:51 10° NE visible
10 Oct ? 03:47:09 31° WSW 03:49:09 46° WNW 03:54:17 10° NNE visible
11 Oct ? 01:32:02 22° E 01:32:02 22° E 01:35:30 10° NE visible
11 Oct ? 03:12:25 59° WSW 03:13:08 67° WNW 03:18:28 10° NNE visible
11 Oct ? 04:52:57 10° W 04:56:22 17° NW 04:59:49 10° N visible
12 Oct ? 00:57:15 13° ENE 00:57:15 13° ENE 00:58:42 10° ENE visible
12 Oct ? 02:37:37 76° NE 02:37:37 76° NE 02:42:35 10° NNE visible
12 Oct ? 04:17:59 18° WNW 04:20:04 23° NW 04:24:15 10° N visible
13 Oct ? 02:02:46 42° ENE 02:02:46 42° ENE 02:06:36 10° NNE visible
13 Oct ? 03:43:08 30° WNW 03:43:52 31° NW 03:48:36 10° NNE visible
14 Oct ? 01:27:53 25° ENE 01:27:53 25° ENE 01:30:30 10° NE visible
14 Oct ? 03:08:14 42° NW 03:08:14 42° NW 03:12:51 10° NNE visible
14 Oct ? 04:49:09 10° WNW 04:51:25 13° NNW 04:53:42 10° N visible
15 Oct ? 00:52:56 15° ENE 00:52:56 15° ENE 00:54:11 10° NE visible
15 Oct ? 02:33:18 44° N 02:33:18 44° N 02:37:03 10° NNE visible
15 Oct ? 04:13:39 15° NW 04:15:01 16° NW 04:18:22 10° N visible
